SCP
0 0 0 0 -0 -0 -0 -0 0 0 -0 -0 0 0 0 0 0 -0 -0 0 0 0 0 0 0 0 0 0 0 0 0 0 0 0 0 0 0 0 0 0 0 0 0
0 0 0 0 -0 -0 -0 -0 0 0 -0 0 0 0 0 0 0 -0 -0 0 0 0 0 0 0 0 0 0 0 0 0 0 0 0 0 0 0 0 0 0 0 0 0
0 0 0 0 0 -0 -0 -0 0 -0 0 0 0 0 0 0 0 0 0 0 0 0 0 0 0 0 0 0 0 0 0 0 0 0 0 0 0 0 0 0 0 0 0
0 0 0 0 0 -0 -0 -0 0 0 0 0 0 0 0 0 0 0 0 0 0 0 -0 0 0 0 0 0 0 0 0 0 0 0 0 0 0 0 0 0 0 0 0
0 0 0 0 0 0 0 0 0 0 0 0 0 0 0 0 0 0 0 0 0 0 -0 -0 0 0 0 0 0 0 0 0 0 0 0 0 0 0 0 0 0 0 0
0 0 0 0 0 0 0 0 0 0 0 0 0 0 0 0 0 0 0 0 0 0 0 -0 0 0 0 0 0 0 0 0 0 0 0 0 0 0 0 0 0 0 0
0 0 0 0 0 0 0 0 0 0 0 0 0 0 0 0 0 0 0 0 0 0 0 0 0 0 0 0 0 0 0 0 0 0 0 0 0 0 0 0 0 0 0
0 0 0 0 0 0 0 0 0 0 0 0 0 0 0 0 0 0 0 0 0 0 0 0 0 0 0 0 0 0 0 0 0 0 0 0 0 0 0 0 0 0 0
0 0 0 0 0 0 0 0 0 0 0 0 0 0 0 0 0 0 0 0 0 0 0 0 0 0 0 0 0 0 0 0 0 0 0 0 0 0 0 0 0 0 0
0 0 0 0 0 0 0 0 0 0 0 0 0 0 0 0 0 0 0 0 0 0 0 0 0 0 0 0 0 0 0 0 0 0 0 0 0 0 0 0 0 0 0
1 0 0 0 0 0 0 0 0 0 0 0 0 0 0 0 0 0 0 0 0 0 0 0 0 0 0 0 0 0 0 0 0 0 0 0 0 0 0 0 0 0 0
0 0 0 0 0 0 0 0 0 0 0 0 0 0 0 0 0 0 0 0 0 0 0 0 0 0 0 0 0 0 0 0 0 0 0 0 0 0 0 0 0 0 0
0 0 0 0 0 0 0 0 0 0 0 0 0 0 0 0 0 0 0 0 0 0 0 0 0 0 0 0 0 0 0 0 0 0 0 0 0 0 0 0 0 0 0
0 0 0 0 0 0 0 0 0 0 0 0 0 0 0 0 0 0 0 0 0 0 0 0 0 0 0 0 0 0 0 0 0 0 0 0 0 0 0 0 0 0 0
0 0 0 0 0 0 0 0 0 0 0 0 0 0 0 0 0 0 0 0 0 0 0 0 0 0 0 0 0 0 0 0 0 0 0 0 0 0 0 0 0 0 0
0 0 0 0 0 0 0 0 0 0 0 0 0 0 0 0 0 0 0 0 0 0 0 0 0 0 0 0 0 0 0 0 0 0 0 0 0 0 0 0 0 0 0
0 0 0 0 0 0 0 0 0 0 0 0 0 0 0 0 0 0 0 0 0 0 0 0 0 0 0 0 0 0 0 0 0 0 0 0 0 0 0 0 0 0 0
0 0 0 0 0 0 0 0 0 0 0 0 0 0 0 0 0 0 0 0 0 0 0 0 0 0 0 0 0 0 0 0 0 0 0 0 0 0 0 0 0 0 0
0 0 0 0 0 0 0 0 0 0 0 0 0 0 0 0 0 0 0 0 0 0 0 0 0 0 0 0 0 0 0 0 0 0 0 0 0 0 0 0 0 0 0
0 0 0 0 0 0 0 0 0 0 0 0 0 0 0 0 0 0 0 0 0 0 0 0 0 0 0 0 0 0 0 0 0 0 0 0 0 0 0 0 0 0 0
0 0 0 0 0 0 0 0 0 0 0 0 0 0 0 0 0 0 0 0 0 0 0 0 0 0 0 0 0 0 0 0 0 0 0 0 0 0 0 0 0 0 0
0 0 0 0 0 0 0 0 0 0 0 0 0 0 0 0 0 0 0 0 0 0 0 0 0 0 0 0 0 0 0 0 0 0 0 0 0 0 0 0 0 0 0
0 0 0 0 0 0 0 0 0 0 0 0 0 0 0 0 0 0 0 0 0 0 0 0 0 0 0 0 0 0 0 0 0 0 0 0 0 0 0 0 0 0 0
-0 -0 -0 0 0 0 0 0 0 0 0 0 0 0 0 0 0 0 0 0 0 0 0 0 0 0 0 0 0 0 0 0 0 0 0 0 0 0 0 0 0 0 0
0 0 0 0 0 0 0 0 0 0 0 0 0 0 0 0 0 0 0 0 0 0 0 0 0 0 0 0 0 0 0 0 0 0 0 0 0 0 0 0 0 0 0
0 0 0 0 0 0 0 0 0 0 0 0 0 0 0 0 0 0 0 0 0 0 0 0 0 0 0 0 0 0 0 0 0 0 0 0 0 0 0 0 0 0 0
Wind_Speed
6 5 5 4 4 4 4 4 4 4 5 5 4 4 5 5 4 4 2 5 5 4 4 5 5 5 5 4 3 3 3 4 4 5 6 7 8 8 7 7 6 5 5
6 6 6 6 5 5 5 5 5 5 4 4 3 4 6 6 5 4 3 3 4 3 3 4 5 6 6 6 5 4 4 5 5 5 6 7 7 8 7 7 6 6 5
8 8 7 7 7 6 6 3 4 3 3 3 4 5 5 5 5 5 4 2 2 3 3 3 3 5 5 6 6 5 5 5 5 5 6 7 7 7 8 7 7 6 6
10 8 8 8 8 6 5 4 3 3 3 3 3 3 3 4 5 5 3 3 2 2 3 4 3 4 4 5 5 5 5 5 5 5 5 6 6 6 7 7 7 6 6
10 7 7 8 8 6 5 5 3 3 3 3 3 2 2 3 3 4 4 4 4 3 3 4 5 5 4 5 5 5 5 5 5 5 5 5 5 5 5 5 5 5 6
8 7 5 7 7 6 5 4 4 3 3 3 2 1 1 2 2 3 4 4 4 5 4 3 3 3 5 5 5 5 5 6 6 6 5 5 4 4 3 3 4 4 5
7 7 5 5 6 6 6 6 4 4 2 2 3 2 2 2 2 2 2 3 5 5 5 4 3 3 3 6 6 6 7 7 7 6 6 5 5 4 4 3 4 4 4
6 7 6 5 5 4 5 5 5 3 2 2 4 2 1 3 3 2 2 3 4 4 5 6 4 4 3 2 4 7 7 7 7 7 7 6 5 5 4 4 4 4 4
4 4 6 5 5 4 4 4 5 6 3 2 2 4 4 4 2 3 2 2 3 3 4 4 6 6 5 4 4 6 8 7 8 8 7 7 6 6 5 5 4 3 3
4 4 4 4 4 3 4 4 4 3 4 3 2 2 3 4 3 1 3 2 2 3 4 4 6 6 6 5 6 8 10 9 9 9 7 7 7 6 6 6 5 5 4
4 4 4 4 4 4 4 4 4 4 4 4 3 2 2 1 2 3 2 2 2 2 3 4 4 5 7 6 5 8 11 11 10 9 8 7 7 7 7 6 6 6 5
4 5 4 3 3 3 4 3 4 5 4 4 3 3 3 3 3 3 3 3 2 3 2 3 3 4 5 6 9 12 13 12 11 9 8 8 8 8 8 8 7 6 5
3 4 4 4 3 2 2 2 2 2 3 3 3 3 3 3 3 3 3 2 2 2 3 2 3 4 5 5 7 13 13 13 12 11 9 8 7 8 9 9 9 8 7
3 3 4 4 3 2 2 1 1 1 2 3 3 3 3 3 3 3 4 4 2 2 2 4 2 3 4 5 8 13 9 14 13 12 10 9 8 8 9 9 10 9 8
3 4 4 3 2 2 1 1 1 1 1 2 3 3 3 3 3 3 3 4 4 3 3 4 3 2 2 3 7 7 7 12 14 13 12 11 10 9 9 8 8 7 6
4 3 3 2 2 2 2 1 1 0 1 2 2 3 3 2 3 3 3 3 3 4 3 3 3 2 2 3 7 6 7 12 15 13 13 12 12 11 11 10 9 8 8
3 3 2 2 1 1 1 1 1 1 2 2 2 3 4 3 3 3 2 3 3 3 4 3 2 2 2 2 2 3 4 5 5 12 13 13 13 13 12 12 11 10 10
2 2 1 1 1 1 1 1 1 1 2 3 3 3 3 3 4 3 3 3 3 3 4 4 2 2 2 2 2 3 3 5 4 9 13 14 14 13 13 12 12 11 11
3 4 3 3 2 2 2 2 2 2 3 4 4 4 4 3 3 2 3 3 2 2 3 3 3 2 1 1 1 1 2 1 3 5 9 12 13 13 12 12 12 11 11
6 6 6 6 5 4 4 3 2 2 3 3 3 3 3 4 4 4 3 3 2 1 1 2 2 1 1 1 1 1 1 1 1 1 2 3 7 10 11 11 11 12 12
9 7 8 8 6 5 5 4 2 1 0 0 0 1 2 4 6 4 3 3 2 1 1 1 1 0 0 0 1 1 2 1 0 0 1 1 1 1 3 6 9 11 12
7 7 8 7 7 7 10 8 4 2 2 2 1 1 1 3 4 4 5 5 4 3 2 1 0 0 1 1 1 1 1 1 0 1 1 1 1 1 1 1 3 7 9
7 7 6 6 6 9 15 14 12 5 3 2 1 1 1 2 2 1 2 2 1 2 3 3 2 1 1 1 2 2 1 1 1 1 1 1 2 1 2 3 5 5 6
5 5 5 6 6 11 17 16 13 7 5 4 3 1 2 2 2 2 2 2 1 1 0 1 2 1 0 1 2 2 2 3 2 2 2 1 2 1 2 2 5 7 7
4 4 4 6 7 9 16 16 12 5 5 6 5 4 3 3 2 4 4 4 3 2 3 4 4 3 4 4 4 3 3 3 2 2 2 2 1 2 2 2 3 5 5
4 5 6 6 6 7 14 16 12 4 4 4 4 4 5 4 3 3 4 5 4 2 2 3 3 4 4 4 5 3 3 2 2 1 1 1 1 2 2 2 2 3 3
Wind_Direction
196 190 192 198 207 210 208 209 216 231 243 251 246 207 175 171 172 176 192 191 184 190 201 211 209 207 212 225 240 239 219 198 192 189 183 172 165 159 159 161 165 165 163
193 189 193 199 212 215 213 207 210 216 220 207 192 163 158 166 179 179 184 192 193 198 209 212 208 209 213 219 227 234 222 203 196 195 191 185 178 175 178 183 187 186 186
197 193 198 203 210 214 215 202 206 196 184 167 148 147 156 169 174 179 181 181 199 216 211 200 200 210 213 216 222 226 214 200 197 196 194 192 192 195 199 204 204 201 203
200 193 198 204 203 203 203 185 176 166 165 154 150 163 163 168 179 184 183 184 189 212 218 205 190 188 195 203 209 210 203 196 194 193 190 187 192 200 208 210 211 207 212
201 190 194 197 189 185 184 180 164 155 158 166 173 177 181 186 188 186 188 193 197 199 210 216 198 186 183 187 190 191 190 187 184 181 177 176 180 188 201 210 212 214 222
193 183 187 185 172 165 166 165 154 145 149 160 142 124 197 238 217 195 197 189 195 198 203 206 198 200 191 183 184 184 183 181 178 175 175 175 175 182 195 212 222 230 231
178 176 174 170 166 164 166 157 143 143 142 133 100 47 348 317 265 242 203 179 197 202 197 201 203 207 199 194 188 187 187 187 185 183 183 186 190 197 209 224 229 234 236
176 173 162 161 160 153 156 154 145 145 152 142 131 117 349 330 312 289 224 190 201 199 200 204 204 208 201 185 203 195 191 193 194 195 198 199 204 209 211 217 227 232 228
162 160 162 158 154 152 168 173 160 151 162 174 149 147 161 219 281 311 286 219 197 199 205 201 206 209 203 191 198 204 193 191 196 200 204 208 211 213 212 213 216 198 176
146 155 163 160 155 155 170 188 170 155 156 170 192 188 170 159 167 277 315 306 249 216 214 211 207 204 201 194 199 200 195 191 195 199 204 211 216 217 212 203 191 179 161
160 156 161 155 161 169 176 188 180 178 171 171 175 168 172 177 161 164 243 292 312 271 235 222 207 199 198 195 195 202 201 195 195 199 205 212 216 212 203 192 181 177 176
150 145 154 159 162 171 178 190 189 185 182 183 180 179 171 180 191 177 196 225 252 282 274 237 218 207 199 195 201 201 202 198 198 199 203 212 218 214 204 194 190 194 207
126 138 142 136 140 157 160 159 172 184 185 189 191 194 196 205 185 165 167 195 230 284 300 277 234 217 205 192 201 201 203 200 201 201 202 208 217 218 211 206 208 215 227
101 121 122 121 123 124 122 114 129 170 191 208 208 195 200 205 188 172 165 157 183 286 294 276 284 228 210 194 204 199 205 204 205 205 204 207 212 215 217 220 223 229 237
86 85 90 93 88 88 89 98 128 181 193 217 215 206 200 203 187 177 164 157 161 200 262 270 276 275 221 202 204 197 199 207 207 209 208 209 212 215 220 225 229 233 238
61 68 67 65 64 69 64 65 48 277 210 225 211 192 196 201 187 176 169 169 166 173 221 258 261 281 262 223 204 195 205 210 211 211 212 214 215 217 221 224 226 226 226
49 54 53 44 32 31 35 75 241 222 225 234 220 202 208 196 188 183 175 176 182 175 214 259 259 269 247 231 196 194 204 210 217 219 220 222 223 223 225 227 227 226 225
24 32 40 43 16 2 3 334 293 252 241 246 241 224 223 201 195 193 188 197 199 197 203 245 270 264 245 224 196 193 202 209 211 226 227 228 229 228 228 229 230 229 228
33 36 47 53 38 29 10 327 286 261 252 250 235 216 216 191 199 197 199 204 208 206 199 219 256 257 258 224 162 194 199 202 211 227 231 233 233 232 231 232 235 236 236
54 54 56 53 54 54 40 5 337 285 253 241 230 206 190 185 191 187 184 189 181 175 189 217 250 264 261 252 152 187 217 214 237 275 266 242 235 236 239 240 241 242 242
57 56 58 49 40 42 31 13 357 0 344 355 329 212 191 184 176 171 163 163 147 140 147 180 245 298 292 186 211 190 196 178 312 311 306 332 280 249 248 251 252 253 251
50 56 55 50 40 31 25 26 29 26 32 47 42 38 107 141 162 166 163 162 158 150 149 136 119 183 265 230 179 148 138 119 264 332 103 24 42 11 334 309 313 288 274
49 51 46 42 34 25 32 34 39 43 40 37 55 114 113 117 125 125 148 130 123 132 146 147 140 201 236 217 151 122 119 122 140 342 63 51 25 29 13 21 16 21 20
45 46 40 34 30 26 31 33 35 34 35 31 33 63 111 105 116 148 141 119 80 41 89 121 138 147 143 122 132 127 120 97 66 22 48 80 14 8 358 1 16 33 38
38 35 32 31 29 16 25 30 33 22 31 29 31 43 73 86 87 128 133 125 98 61 66 99 110 99 91 95 106 92 83 83 65 17 18 82 22 355 346 346 358 16 21
40 42 39 31 27 16 19 26 29 22 27 24 25 30 48 62 62 106 132 134 130 123 100 89 70 56 57 65 75 92 116 109 109 68 3 74 36 23 14 342 349 357 2